Year,Month,Day,Hour,Minute,Value (Times are PST for temperature in C)
2009,07,21,00,00,18.80
2009,07,21,00,01,18.80
2009,07,21,00,02,18.80
2009,07,21,00,03,18.80
2009,07,21,00,04,18.80
2009,07,21,00,05,18.80
2009,07,21,00,06,18.80
2009,07,21,00,07,18.80
2009,07,21,00,08,18.80
2009,07,21,00,09,18.80
2009,07,21,00,10,18.70
2009,07,21,00,11,18.70
2009,07,21,00,12,18.60
2009,07,21,00,13,18.60
2009,07,21,00,14,18.60
2009,07,21,00,15,18.50
2009,07,21,00,16,18.50
2009,07,21,00,17,18.50
2009,07,21,00,18,18.40
2009,07,21,00,19,18.40
2009,07,21,00,20,18.40
2009,07,21,00,21,18.30
2009,07,21,00,22,18.30
2009,07,21,00,23,18.30
2009,07,21,00,24,18.30
2009,07,21,00,25,18.30
2009,07,21,00,26,18.20
2009,07,21,00,27,18.20
2009,07,21,00,28,18.20
2009,07,21,00,29,18.10
2009,07,21,00,30,18.10
2009,07,21,00,31,18.00
2009,07,21,00,32,18.00
2009,07,21,00,33,17.90
2009,07,21,00,34,17.90
2009,07,21,00,35,17.90
2009,07,21,00,36,17.90
2009,07,21,00,37,17.90
2009,07,21,00,38,17.90
2009,07,21,00,39,17.90
2009,07,21,00,40,17.80
2009,07,21,00,41,17.90
2009,07,21,00,42,17.90
2009,07,21,00,43,17.90
2009,07,21,00,44,17.90
2009,07,21,00,45,18.00
2009,07,21,00,46,18.00
2009,07,21,00,47,18.10
2009,07,21,00,48,18.10
2009,07,21,00,49,18.10
2009,07,21,00,50,18.20
2009,07,21,00,51,18.20
2009,07,21,00,52,18.20
2009,07,21,00,53,18.20
2009,07,21,00,54,18.30
2009,07,21,00,55,18.30
2009,07,21,00,56,18.30
2009,07,21,00,57,18.30
2009,07,21,00,58,18.30
2009,07,21,00,59,18.40
2009,07,21,01,00,18.40
2009,07,21,01,01,18.40
2009,07,21,01,02,18.50
2009,07,21,01,03,18.60
2009,07,21,01,04,18.60
2009,07,21,01,05,18.70
2009,07,21,01,06,18.80
2009,07,21,01,07,18.80
2009,07,21,01,08,18.80
2009,07,21,01,09,18.80
2009,07,21,01,10,18.80
2009,07,21,01,11,18.70
2009,07,21,01,12,18.70
2009,07,21,01,13,18.60
2009,07,21,01,14,18.50
2009,07,21,01,15,18.50
2009,07,21,01,16,18.40
2009,07,21,01,17,18.30
2009,07,21,01,18,18.30
2009,07,21,01,19,18.20
2009,07,21,01,20,18.20
2009,07,21,01,21,18.20
2009,07,21,01,22,18.10
2009,07,21,01,23,18.10
2009,07,21,01,24,18.10
2009,07,21,01,25,18.20
2009,07,21,01,26,18.20
2009,07,21,01,27,18.20
2009,07,21,01,28,18.20
2009,07,21,01,29,18.20
2009,07,21,01,30,18.30
2009,07,21,01,31,18.30
2009,07,21,01,32,18.30
2009,07,21,01,33,18.30
2009,07,21,01,34,18.30
2009,07,21,01,35,18.30
2009,07,21,01,36,18.30
2009,07,21,01,37,18.20
2009,07,21,01,38,18.20
2009,07,21,01,39,18.20
2009,07,21,01,40,18.20
2009,07,21,01,41,18.20
2009,07,21,01,42,18.10
2009,07,21,01,43,18.10
2009,07,21,01,44,18.10
2009,07,21,01,45,18.10
2009,07,21,01,46,18.00
2009,07,21,01,47,18.00
2009,07,21,01,48,17.90
2009,07,21,01,49,17.90
2009,07,21,01,50,17.90
2009,07,21,01,51,17.80
2009,07,21,01,52,17.80
2009,07,21,01,53,17.80
2009,07,21,01,54,17.80
2009,07,21,01,55,17.70
2009,07,21,01,56,17.70
2009,07,21,01,57,17.70
2009,07,21,01,58,17.70
2009,07,21,01,59,17.70
2009,07,21,02,00,17.70
2009,07,21,02,01,17.70
2009,07,21,02,02,17.60
2009,07,21,02,03,17.60
2009,07,21,02,04,17.60
2009,07,21,02,05,17.60
2009,07,21,02,06,17.60
2009,07,21,02,07,17.50
2009,07,21,02,08,17.40
2009,07,21,02,09,17.40
2009,07,21,02,10,17.30
2009,07,21,02,11,17.30
2009,07,21,02,12,17.20
2009,07,21,02,13,17.20
2009,07,21,02,14,17.10
2009,07,21,02,15,17.10
2009,07,21,02,16,17.00
2009,07,21,02,17,17.00
2009,07,21,02,18,16.90
2009,07,21,02,19,16.90
2009,07,21,02,20,16.90
2009,07,21,02,21,16.90
2009,07,21,02,22,16.90
2009,07,21,02,23,16.90
2009,07,21,02,24,16.80
2009,07,21,02,25,16.80
2009,07,21,02,26,16.80
2009,07,21,02,27,16.80
2009,07,21,02,28,16.80
2009,07,21,02,29,16.80
2009,07,21,02,30,16.80
2009,07,21,02,31,16.90
2009,07,21,02,32,16.90
2009,07,21,02,33,16.90
2009,07,21,02,34,17.00
2009,07,21,02,35,17.00
2009,07,21,02,36,17.10
2009,07,21,02,37,17.10
2009,07,21,02,38,17.20
2009,07,21,02,39,17.20
2009,07,21,02,40,17.20
2009,07,21,02,41,17.20
2009,07,21,02,42,17.20
2009,07,21,02,43,17.20
2009,07,21,02,44,17.20
2009,07,21,02,45,17.20
2009,07,21,02,46,17.20
2009,07,21,02,47,17.20
2009,07,21,02,48,17.20
2009,07,21,02,49,17.20
2009,07,21,02,50,17.20
2009,07,21,02,51,17.20
2009,07,21,02,52,17.20
2009,07,21,02,53,17.20
2009,07,21,02,54,17.10
2009,07,21,02,55,17.10
2009,07,21,02,56,17.10
2009,07,21,02,57,17.10
2009,07,21,02,58,17.10
2009,07,21,02,59,17.10
2009,07,21,03,00,17.00
2009,07,21,03,01,17.00
2009,07,21,03,02,17.00
2009,07,21,03,03,16.90
2009,07,21,03,04,16.90
2009,07,21,03,05,16.90
2009,07,21,03,06,16.90
2009,07,21,03,07,16.90
2009,07,21,03,08,16.80
2009,07,21,03,09,16.80
2009,07,21,03,10,16.80
2009,07,21,03,11,16.80
2009,07,21,03,12,16.70
2009,07,21,03,13,16.70
2009,07,21,03,14,16.70
2009,07,21,03,15,16.70
2009,07,21,03,16,16.60
2009,07,21,03,17,16.60
2009,07,21,03,18,16.60
2009,07,21,03,19,16.60
2009,07,21,03,20,16.50
2009,07,21,03,21,16.50
2009,07,21,03,22,16.50
2009,07,21,03,23,16.50
2009,07,21,03,24,16.50
2009,07,21,03,25,16.50
2009,07,21,03,26,16.60
2009,07,21,03,27,16.60
2009,07,21,03,28,16.60
2009,07,21,03,29,16.70
2009,07,21,03,30,16.70
2009,07,21,03,31,16.70
2009,07,21,03,32,16.70
2009,07,21,03,33,16.80
2009,07,21,03,34,16.80
2009,07,21,03,35,16.80
2009,07,21,03,36,16.80
2009,07,21,03,37,16.80
2009,07,21,03,38,16.80
2009,07,21,03,39,16.80
2009,07,21,03,40,16.80
2009,07,21,03,41,16.80
2009,07,21,03,42,16.80
2009,07,21,03,43,16.80
2009,07,21,03,44,16.80
2009,07,21,03,45,16.80
2009,07,21,03,46,16.80
2009,07,21,03,47,16.80
2009,07,21,03,48,16.80
2009,07,21,03,49,16.80
2009,07,21,03,50,16.80
2009,07,21,03,51,16.80
2009,07,21,03,52,16.80
2009,07,21,03,53,16.80
2009,07,21,03,54,16.80
2009,07,21,03,55,16.80
2009,07,21,03,56,16.80
2009,07,21,03,57,16.80
2009,07,21,03,58,16.80
2009,07,21,03,59,16.80
2009,07,21,04,00,16.80
2009,07,21,04,01,16.80
2009,07,21,04,02,16.80
2009,07,21,04,03,16.80
2009,07,21,04,04,16.80
2009,07,21,04,05,16.70
2009,07,21,04,06,16.70
2009,07,21,04,07,16.70
2009,07,21,04,08,16.70
2009,07,21,04,09,16.70
2009,07,21,04,10,16.60
2009,07,21,04,11,16.60
2009,07,21,04,12,16.60
2009,07,21,04,13,16.50
2009,07,21,04,14,16.50
2009,07,21,04,15,16.50
2009,07,21,04,16,16.40
2009,07,21,04,17,16.40
2009,07,21,04,18,16.40
2009,07,21,04,19,16.40
2009,07,21,04,20,16.30
2009,07,21,04,21,16.30
2009,07,21,04,22,16.30
2009,07,21,04,23,16.30
2009,07,21,04,24,16.30
2009,07,21,04,25,16.30
2009,07,21,04,26,16.20
2009,07,21,04,27,16.20
2009,07,21,04,28,16.20
2009,07,21,04,29,16.20
2009,07,21,04,30,16.20
2009,07,21,04,31,16.20
2009,07,21,04,32,16.10
2009,07,21,04,33,16.10
2009,07,21,04,34,16.10
2009,07,21,04,35,16.10
2009,07,21,04,36,16.10
2009,07,21,04,37,16.10
2009,07,21,04,38,16.00
2009,07,21,04,39,16.00
2009,07,21,04,40,16.00
2009,07,21,04,41,15.90
2009,07,21,04,42,15.90
2009,07,21,04,43,15.90
2009,07,21,04,44,15.80
2009,07,21,04,45,15.80
2009,07,21,04,46,15.80
2009,07,21,04,47,15.80
2009,07,21,04,48,15.70
2009,07,21,04,49,15.70
2009,07,21,04,50,15.70
2009,07,21,04,51,15.70
2009,07,21,04,52,15.70
2009,07,21,04,53,15.70
2009,07,21,04,54,15.70
2009,07,21,04,55,15.70
2009,07,21,04,56,15.60
2009,07,21,04,57,15.60
2009,07,21,04,58,15.60
2009,07,21,04,59,15.60
2009,07,21,05,00,15.60
2009,07,21,05,01,15.60
2009,07,21,05,02,15.50
2009,07,21,05,03,15.50
2009,07,21,05,04,15.50
2009,07,21,05,05,15.50
2009,07,21,05,06,15.40
2009,07,21,05,07,15.40
2009,07,21,05,08,15.40
2009,07,21,05,09,15.30
2009,07,21,05,10,15.30
2009,07,21,05,11,15.30
2009,07,21,05,12,15.20
2009,07,21,05,13,15.20
2009,07,21,05,14,15.20
2009,07,21,05,15,15.10
2009,07,21,05,16,15.10
2009,07,21,05,17,15.00
2009,07,21,05,18,15.00
2009,07,21,05,19,14.90
2009,07,21,05,20,14.90
2009,07,21,05,21,14.90
2009,07,21,05,22,14.80
2009,07,21,05,23,14.80
2009,07,21,05,24,14.80
2009,07,21,05,25,14.70
2009,07,21,05,26,14.70
2009,07,21,05,27,14.70
2009,07,21,05,28,14.60
2009,07,21,05,29,14.60
2009,07,21,05,30,14.60
2009,07,21,05,31,14.50
2009,07,21,05,32,14.50
2009,07,21,05,33,14.40
2009,07,21,05,34,14.40
2009,07,21,05,35,14.40
2009,07,21,05,36,14.40
2009,07,21,05,37,14.40
2009,07,21,05,38,14.30
2009,07,21,05,39,14.30
2009,07,21,05,40,14.30
2009,07,21,05,41,14.30
2009,07,21,05,42,14.30
2009,07,21,05,43,14.30
2009,07,21,05,44,14.30
2009,07,21,05,45,14.30
2009,07,21,05,46,14.30
2009,07,21,05,47,14.30
2009,07,21,05,48,14.30
2009,07,21,05,49,14.30
2009,07,21,05,50,14.30
2009,07,21,05,51,14.40
2009,07,21,05,52,14.40
2009,07,21,05,53,14.40
2009,07,21,05,54,14.40
2009,07,21,05,55,14.40
2009,07,21,05,56,14.50
2009,07,21,05,57,14.50
2009,07,21,05,58,14.50
2009,07,21,05,59,14.60
2009,07,21,06,00,14.60
2009,07,21,06,01,14.70
2009,07,21,06,02,14.70
2009,07,21,06,03,14.70
2009,07,21,06,04,14.80
2009,07,21,06,05,14.80
2009,07,21,06,06,14.90
2009,07,21,06,07,14.90
2009,07,21,06,08,15.00
2009,07,21,06,09,15.00
2009,07,21,06,10,15.10
2009,07,21,06,11,15.10
2009,07,21,06,12,15.10
2009,07,21,06,13,15.20
2009,07,21,06,14,15.20
2009,07,21,06,15,15.30
2009,07,21,06,16,15.30
2009,07,21,06,17,15.30
2009,07,21,06,18,15.40
2009,07,21,06,19,15.40
2009,07,21,06,20,15.50
2009,07,21,06,21,15.50
2009,07,21,06,22,15.60
2009,07,21,06,23,15.60
2009,07,21,06,24,15.60
2009,07,21,06,25,15.70
2009,07,21,06,26,15.70
2009,07,21,06,27,15.80
2009,07,21,06,28,15.80
2009,07,21,06,29,15.80
2009,07,21,06,30,15.90
2009,07,21,06,31,15.90
2009,07,21,06,32,16.00
2009,07,21,06,33,16.00
2009,07,21,06,34,16.00
2009,07,21,06,35,16.10
2009,07,21,06,36,16.10
2009,07,21,06,37,16.10
2009,07,21,06,38,16.20
2009,07,21,06,39,16.20
2009,07,21,06,40,16.30
2009,07,21,06,41,16.30
2009,07,21,06,42,16.40
2009,07,21,06,43,16.40
2009,07,21,06,44,16.40
2009,07,21,06,45,16.50
2009,07,21,06,46,16.60
2009,07,21,06,47,16.60
2009,07,21,06,48,16.70
2009,07,21,06,49,16.70
2009,07,21,06,50,16.70
2009,07,21,06,51,16.80
2009,07,21,06,52,16.80
2009,07,21,06,53,16.80
2009,07,21,06,54,16.90
2009,07,21,06,55,16.90
2009,07,21,06,56,16.90
2009,07,21,06,57,16.90
2009,07,21,06,58,17.00
2009,07,21,06,59,17.00
2009,07,21,07,00,17.00
2009,07,21,07,01,17.10
2009,07,21,07,02,17.10
2009,07,21,07,03,17.10
2009,07,21,07,04,17.20
2009,07,21,07,05,17.20
2009,07,21,07,06,17.30
2009,07,21,07,07,17.30
2009,07,21,07,08,17.30
2009,07,21,07,09,17.40
2009,07,21,07,10,17.40
2009,07,21,07,11,17.50
2009,07,21,07,12,17.60
2009,07,21,07,13,17.60
2009,07,21,07,14,17.60
2009,07,21,07,15,17.70
2009,07,21,07,16,17.70
2009,07,21,07,17,17.80
2009,07,21,07,18,17.80
2009,07,21,07,19,17.80
2009,07,21,07,20,17.90
2009,07,21,07,21,17.90
2009,07,21,07,22,17.90
2009,07,21,07,23,18.00
2009,07,21,07,24,18.00
2009,07,21,07,25,18.00
2009,07,21,07,26,18.10
2009,07,21,07,27,18.10
2009,07,21,07,28,18.10
2009,07,21,07,29,18.10
2009,07,21,07,30,18.10
2009,07,21,07,31,18.10
2009,07,21,07,32,18.10
2009,07,21,07,33,18.20
2009,07,21,07,34,18.20
2009,07,21,07,35,18.20
2009,07,21,07,36,18.20
2009,07,21,07,37,18.20
2009,07,21,07,38,18.20
2009,07,21,07,39,18.20
2009,07,21,07,40,18.20
2009,07,21,07,41,18.20
2009,07,21,07,42,18.30
2009,07,21,07,43,18.30
2009,07,21,07,44,18.30
2009,07,21,07,45,18.30
2009,07,21,07,46,18.40
2009,07,21,07,47,18.40
2009,07,21,07,48,18.40
2009,07,21,07,49,18.50
2009,07,21,07,50,18.50
2009,07,21,07,51,18.60
2009,07,21,07,52,18.60
2009,07,21,07,53,18.70
2009,07,21,07,54,18.70
2009,07,21,07,55,18.80
2009,07,21,07,56,18.80
2009,07,21,07,57,18.90
2009,07,21,07,58,18.90
2009,07,21,07,59,19.00
2009,07,21,08,00,19.00
2009,07,21,08,01,19.10
2009,07,21,08,02,19.20
2009,07,21,08,03,19.20
2009,07,21,08,04,19.30
2009,07,21,08,05,19.40
2009,07,21,08,06,19.40
2009,07,21,08,07,19.50
2009,07,21,08,08,19.60
2009,07,21,08,09,19.70
2009,07,21,08,10,19.70
2009,07,21,08,11,19.80
2009,07,21,08,12,19.90
2009,07,21,08,13,20.00
2009,07,21,08,14,20.00
2009,07,21,08,15,20.10
2009,07,21,08,16,20.20
2009,07,21,08,17,20.20
2009,07,21,08,18,20.30
2009,07,21,08,19,20.30
2009,07,21,08,20,20.30
2009,07,21,08,21,20.30
2009,07,21,08,22,20.40
2009,07,21,08,23,20.40
2009,07,21,08,24,20.50
2009,07,21,08,25,20.50
2009,07,21,08,26,20.60
2009,07,21,08,27,20.70
2009,07,21,08,28,20.70
2009,07,21,08,29,20.80
2009,07,21,08,30,20.80
2009,07,21,08,31,20.90
2009,07,21,08,32,21.00
2009,07,21,08,33,21.00
2009,07,21,08,34,21.10
2009,07,21,08,35,21.10
2009,07,21,08,36,21.10
2009,07,21,08,37,21.20
2009,07,21,08,38,21.20
2009,07,21,08,39,21.20
2009,07,21,08,40,21.20
2009,07,21,08,41,21.30
2009,07,21,08,42,21.30
2009,07,21,08,43,21.30
2009,07,21,08,44,21.30
2009,07,21,08,45,21.30
2009,07,21,08,46,21.30
2009,07,21,08,47,21.30
2009,07,21,08,48,21.30
2009,07,21,08,49,21.40
2009,07,21,08,50,21.40
2009,07,21,08,51,21.40
2009,07,21,08,52,21.40
2009,07,21,08,53,21.50
2009,07,21,08,54,21.50
2009,07,21,08,55,21.50
2009,07,21,08,56,21.50
2009,07,21,08,57,21.50
2009,07,21,08,58,21.60
2009,07,21,08,59,21.60
2009,07,21,09,00,21.60
2009,07,21,09,01,21.70
2009,07,21,09,02,21.70
2009,07,21,09,03,21.70
2009,07,21,09,04,21.70
2009,07,21,09,05,21.80
2009,07,21,09,06,21.80
2009,07,21,09,07,21.90
2009,07,21,09,08,21.90
2009,07,21,09,09,22.00
2009,07,21,09,10,22.10
2009,07,21,09,11,22.10
2009,07,21,09,12,22.10
2009,07,21,09,13,22.20
2009,07,21,09,14,22.20
2009,07,21,09,15,22.30
2009,07,21,09,16,22.30
2009,07,21,09,17,22.30
2009,07,21,09,18,22.40
2009,07,21,09,19,22.30
2009,07,21,09,20,22.30
2009,07,21,09,21,22.30
2009,07,21,09,22,22.40
2009,07,21,09,23,22.40
2009,07,21,09,24,22.40
2009,07,21,09,25,22.50
2009,07,21,09,26,22.50
2009,07,21,09,27,22.50
2009,07,21,09,28,22.50
2009,07,21,09,29,22.50
2009,07,21,09,30,22.50
2009,07,21,09,31,22.60
2009,07,21,09,32,22.60
2009,07,21,09,33,22.60
2009,07,21,09,34,22.60
2009,07,21,09,35,22.50
2009,07,21,09,36,22.50
2009,07,21,09,37,22.40
2009,07,21,09,38,22.40
2009,07,21,09,39,22.30
2009,07,21,09,40,22.30
2009,07,21,09,41,22.30
2009,07,21,09,42,22.30
2009,07,21,09,43,22.30
2009,07,21,09,44,22.30
2009,07,21,09,45,22.20
2009,07,21,09,46,22.20
2009,07,21,09,47,22.20
2009,07,21,09,48,22.20
2009,07,21,09,49,22.20
2009,07,21,09,50,22.10
2009,07,21,09,51,22.10
2009,07,21,09,52,22.10
2009,07,21,09,53,22.10
2009,07,21,09,54,22.10
2009,07,21,09,55,22.20
2009,07,21,09,56,22.20
2009,07,21,09,57,22.20
2009,07,21,09,58,22.30
2009,07,21,09,59,22.30
2009,07,21,10,00,22.30
2009,07,21,10,01,22.30
2009,07,21,10,02,22.30
2009,07,21,10,03,22.30
2009,07,21,10,04,22.30
2009,07,21,10,05,22.30
2009,07,21,10,06,22.30
2009,07,21,10,07,22.30
2009,07,21,10,08,22.40
2009,07,21,10,09,22.40
2009,07,21,10,10,22.40
2009,07,21,10,11,22.40
2009,07,21,10,12,22.40
2009,07,21,10,13,22.30
2009,07,21,10,14,22.30
2009,07,21,10,15,22.30
2009,07,21,10,16,22.30
2009,07,21,10,17,22.20
2009,07,21,10,18,22.20
2009,07,21,10,19,22.20
2009,07,21,10,20,22.20
2009,07,21,10,21,22.20
2009,07,21,10,22,22.20
2009,07,21,10,23,22.20
2009,07,21,10,24,22.20
2009,07,21,10,25,22.20
2009,07,21,10,26,22.20
2009,07,21,10,27,22.20
2009,07,21,10,28,22.20
2009,07,21,10,29,22.20
2009,07,21,10,30,22.20
2009,07,21,10,31,22.20
2009,07,21,10,32,22.20
2009,07,21,10,33,22.20
2009,07,21,10,34,22.20
2009,07,21,10,35,22.20
2009,07,21,10,36,22.20
2009,07,21,10,37,22.20
2009,07,21,10,38,22.20
2009,07,21,10,39,22.20
2009,07,21,10,40,22.20
2009,07,21,10,41,22.20
2009,07,21,10,42,22.20
2009,07,21,10,43,22.20
2009,07,21,10,44,22.20
2009,07,21,10,45,22.20
2009,07,21,10,46,22.20
2009,07,21,10,47,22.20
2009,07,21,10,48,22.20
2009,07,21,10,49,22.20
2009,07,21,10,50,22.30
2009,07,21,10,51,22.30
2009,07,21,10,52,22.40
2009,07,21,10,53,22.40
2009,07,21,10,54,22.30
2009,07,21,10,55,22.30
2009,07,21,10,56,22.30
2009,07,21,10,57,22.30
2009,07,21,10,58,22.30
2009,07,21,10,59,22.40
2009,07,21,11,00,22.40
2009,07,21,11,01,22.40
2009,07,21,11,02,22.40
2009,07,21,11,03,22.40
2009,07,21,11,04,22.40
2009,07,21,11,05,22.40
2009,07,21,11,06,22.40
2009,07,21,11,07,22.50
2009,07,21,11,08,22.50
2009,07,21,11,09,22.60
2009,07,21,11,10,22.60
2009,07,21,11,11,22.60
2009,07,21,11,12,22.60
2009,07,21,11,13,22.60
2009,07,21,11,14,22.60
2009,07,21,11,15,22.70
2009,07,21,11,16,22.70
2009,07,21,11,17,22.70
2009,07,21,11,18,22.70
2009,07,21,11,19,22.80
2009,07,21,11,20,22.80
2009,07,21,11,21,22.90
2009,07,21,11,22,22.90
2009,07,21,11,23,23.00
2009,07,21,11,24,23.00
2009,07,21,11,25,23.10
2009,07,21,11,26,23.10
2009,07,21,11,27,23.10
2009,07,21,11,28,23.10
2009,07,21,11,29,23.10
2009,07,21,11,30,23.20
2009,07,21,11,31,23.20
2009,07,21,11,32,23.20
2009,07,21,11,33,23.20
2009,07,21,11,34,23.10
2009,07,21,11,35,23.20
2009,07,21,11,36,23.20
2009,07,21,11,37,23.20
2009,07,21,11,38,23.20
2009,07,21,11,39,23.30
2009,07,21,11,40,23.30
2009,07,21,11,41,23.30
2009,07,21,11,42,23.30
2009,07,21,11,43,23.20
2009,07,21,11,44,23.20
2009,07,21,11,45,23.20
2009,07,21,11,46,23.20
2009,07,21,11,47,23.20
2009,07,21,11,48,23.20
2009,07,21,11,49,23.20
2009,07,21,11,50,23.20
2009,07,21,11,51,23.20
2009,07,21,11,52,23.20
2009,07,21,11,53,23.20
2009,07,21,11,54,23.20
2009,07,21,11,55,23.30
2009,07,21,11,56,23.20
2009,07,21,11,57,23.20
2009,07,21,11,58,23.20
2009,07,21,11,59,23.20
2009,07,21,12,00,23.20
2009,07,21,12,01,23.20
2009,07,21,12,02,23.10
2009,07,21,12,03,23.00
2009,07,21,12,04,23.00
2009,07,21,12,05,23.00
2009,07,21,12,06,22.90
2009,07,21,12,07,22.90
2009,07,21,12,08,22.90
2009,07,21,12,09,22.80
2009,07,21,12,10,22.80
2009,07,21,12,11,22.80
2009,07,21,12,12,22.70
2009,07,21,12,13,22.70
2009,07,21,12,14,22.70
2009,07,21,12,15,22.80
2009,07,21,12,16,22.80
2009,07,21,12,17,22.80
2009,07,21,12,18,22.80
2009,07,21,12,19,22.90
2009,07,21,12,20,23.00
2009,07,21,12,21,23.00
2009,07,21,12,22,23.00
2009,07,21,12,23,23.00
2009,07,21,12,24,23.10
2009,07,21,12,25,23.10
2009,07,21,12,26,23.20
2009,07,21,12,27,23.20
2009,07,21,12,28,23.20
2009,07,21,12,29,23.20
2009,07,21,12,30,23.30
2009,07,21,12,31,23.30
2009,07,21,12,32,23.30
2009,07,21,12,33,23.40
2009,07,21,12,34,23.40
2009,07,21,12,35,23.40
2009,07,21,12,36,23.50
2009,07,21,12,37,23.60
2009,07,21,12,38,23.60
2009,07,21,12,39,23.70
2009,07,21,12,40,23.70
2009,07,21,12,41,23.70
2009,07,21,12,42,23.70
2009,07,21,12,43,23.80
2009,07,21,12,44,23.80
2009,07,21,12,45,23.80
2009,07,21,12,46,23.80
2009,07,21,12,47,23.90
2009,07,21,12,48,23.90
2009,07,21,12,49,23.90
2009,07,21,12,50,24.00
2009,07,21,12,51,24.00
2009,07,21,12,52,24.00
2009,07,21,12,53,24.00
2009,07,21,12,54,24.10
2009,07,21,12,55,24.10
2009,07,21,12,56,24.10
2009,07,21,12,57,24.10
2009,07,21,12,58,24.10
2009,07,21,12,59,24.10
2009,07,21,13,00,24.10
2009,07,21,13,01,24.10
2009,07,21,13,02,24.20
2009,07,21,13,03,24.20
2009,07,21,13,04,24.30
2009,07,21,13,05,24.30
2009,07,21,13,06,24.30
2009,07,21,13,07,24.30
2009,07,21,13,08,24.40
2009,07,21,13,09,24.40
2009,07,21,13,10,24.50
2009,07,21,13,11,24.50
2009,07,21,13,12,24.50
2009,07,21,13,13,24.50
2009,07,21,13,14,24.40
2009,07,21,13,15,24.40
2009,07,21,13,16,24.40
2009,07,21,13,17,24.40
2009,07,21,13,18,24.30
2009,07,21,13,19,24.30
2009,07,21,13,20,24.20
2009,07,21,13,21,24.20
2009,07,21,13,22,24.20
2009,07,21,13,23,24.20
2009,07,21,13,24,24.20
2009,07,21,13,25,24.20
2009,07,21,13,26,24.30
2009,07,21,13,27,24.40
2009,07,21,13,28,24.40
2009,07,21,13,29,24.40
2009,07,21,13,30,24.40
2009,07,21,13,31,24.30
2009,07,21,13,32,24.30
2009,07,21,13,33,24.30
2009,07,21,13,34,24.30
2009,07,21,13,35,24.30
2009,07,21,13,36,24.40
2009,07,21,13,37,24.40
2009,07,21,13,38,24.40
2009,07,21,13,39,24.40
2009,07,21,13,40,24.40
2009,07,21,13,41,24.40
2009,07,21,13,42,24.30
2009,07,21,13,43,24.30
2009,07,21,13,44,24.30
2009,07,21,13,45,24.30
2009,07,21,13,46,24.30
2009,07,21,13,47,24.40
2009,07,21,13,48,24.40
2009,07,21,13,49,24.40
2009,07,21,13,50,24.50
2009,07,21,13,51,24.60
2009,07,21,13,52,24.70
2009,07,21,13,53,24.70
2009,07,21,13,54,24.70
2009,07,21,13,55,24.70
2009,07,21,13,56,24.80
2009,07,21,13,57,24.80
2009,07,21,13,58,24.70
2009,07,21,13,59,24.70
2009,07,21,14,00,24.70
2009,07,21,14,01,24.70
2009,07,21,14,02,24.70
2009,07,21,14,03,24.70
2009,07,21,14,04,24.70
2009,07,21,14,05,24.70
2009,07,21,14,06,24.80
2009,07,21,14,07,24.80
2009,07,21,14,08,24.80
2009,07,21,14,09,24.80
2009,07,21,14,10,24.80
2009,07,21,14,11,24.80
2009,07,21,14,12,24.80
2009,07,21,14,13,24.80
2009,07,21,14,14,24.80
2009,07,21,14,15,24.80
2009,07,21,14,16,24.80
2009,07,21,14,17,24.80
2009,07,21,14,18,24.80
2009,07,21,14,19,24.80
2009,07,21,14,20,24.80
2009,07,21,14,21,24.80
2009,07,21,14,22,24.70
2009,07,21,14,23,24.70
2009,07,21,14,24,24.70
2009,07,21,14,25,24.70
2009,07,21,14,26,24.70
2009,07,21,14,27,24.70
2009,07,21,14,28,24.80
2009,07,21,14,29,24.80
2009,07,21,14,30,24.70
2009,07,21,14,31,24.70
2009,07,21,14,32,24.70
2009,07,21,14,33,24.60
2009,07,21,14,34,24.60
2009,07,21,14,35,24.60
2009,07,21,14,36,24.70
2009,07,21,14,37,24.70
2009,07,21,14,38,24.70
2009,07,21,14,39,24.70
2009,07,21,14,40,24.70
2009,07,21,14,41,24.70
2009,07,21,14,42,24.80
2009,07,21,14,43,24.80
2009,07,21,14,44,24.80
2009,07,21,14,45,24.80
2009,07,21,14,46,24.90
2009,07,21,14,47,24.90
2009,07,21,14,48,24.90
2009,07,21,14,49,24.90
2009,07,21,14,50,24.80
2009,07,21,14,51,24.80
2009,07,21,14,52,24.70
2009,07,21,14,53,24.60
2009,07,21,14,54,24.50
2009,07,21,14,55,24.50
2009,07,21,14,56,24.50
2009,07,21,14,57,24.40
2009,07,21,14,58,24.40
2009,07,21,14,59,24.40
2009,07,21,15,00,24.30
2009,07,21,15,01,24.30
2009,07,21,15,02,24.30
2009,07,21,15,03,24.30
2009,07,21,15,04,24.30
2009,07,21,15,05,24.30
2009,07,21,15,06,24.40
2009,07,21,15,07,24.40
2009,07,21,15,08,24.50
2009,07,21,15,09,24.60
2009,07,21,15,10,24.60
2009,07,21,15,11,24.70
2009,07,21,15,12,24.70
2009,07,21,15,13,24.70
2009,07,21,15,14,24.80
2009,07,21,15,15,24.80
2009,07,21,15,16,24.80
2009,07,21,15,17,24.80
2009,07,21,15,18,24.80
2009,07,21,15,19,24.80
2009,07,21,15,20,24.80
2009,07,21,15,21,24.80
2009,07,21,15,22,24.80
2009,07,21,15,23,24.70
2009,07,21,15,24,24.70
2009,07,21,15,25,24.70
2009,07,21,15,26,24.70
2009,07,21,15,27,24.70
2009,07,21,15,28,24.70
2009,07,21,15,29,24.70
2009,07,21,15,30,24.80
2009,07,21,15,31,24.80
2009,07,21,15,32,24.80
2009,07,21,15,33,24.90
2009,07,21,15,34,24.90
2009,07,21,15,35,25.00
2009,07,21,15,36,25.10
2009,07,21,15,37,25.10
2009,07,21,15,38,25.20
2009,07,21,15,39,25.20
2009,07,21,15,40,25.30
2009,07,21,15,41,25.30
2009,07,21,15,42,25.30
2009,07,21,15,43,25.30
2009,07,21,15,44,25.30
2009,07,21,15,45,25.30
2009,07,21,15,46,25.30
2009,07,21,15,47,25.30
2009,07,21,15,48,25.40
2009,07,21,15,49,25.40
2009,07,21,15,50,25.40
2009,07,21,15,51,25.40
2009,07,21,15,52,25.30
2009,07,21,15,53,25.30
2009,07,21,15,54,25.30
2009,07,21,15,55,25.30
2009,07,21,15,56,25.30
2009,07,21,15,57,25.20
2009,07,21,15,58,25.20
2009,07,21,15,59,25.20
2009,07,21,16,00,25.10
2009,07,21,16,01,25.00
2009,07,21,16,02,25.00
2009,07,21,16,03,25.00
2009,07,21,16,04,25.10
2009,07,21,16,05,25.10
2009,07,21,16,06,25.10
2009,07,21,16,07,25.10
2009,07,21,16,08,25.00
2009,07,21,16,09,25.00
2009,07,21,16,10,25.00
2009,07,21,16,11,24.90
2009,07,21,16,12,24.90
2009,07,21,16,13,25.00
2009,07,21,16,14,25.00
2009,07,21,16,15,25.10
2009,07,21,16,16,25.10
2009,07,21,16,17,25.20
2009,07,21,16,18,25.30
2009,07,21,16,19,25.30
2009,07,21,16,20,25.40
2009,07,21,16,21,25.50
2009,07,21,16,22,25.60
2009,07,21,16,23,25.80
2009,07,21,16,24,25.90
2009,07,21,16,25,26.00
2009,07,21,16,26,26.00
2009,07,21,16,27,26.10
2009,07,21,16,28,26.10
2009,07,21,16,29,26.20
2009,07,21,16,30,26.20
2009,07,21,16,31,26.20
2009,07,21,16,32,26.30
2009,07,21,16,33,26.30
2009,07,21,16,34,26.40
2009,07,21,16,35,26.50
2009,07,21,16,36,26.50
2009,07,21,16,37,26.50
2009,07,21,16,38,26.40
2009,07,21,16,39,26.40
2009,07,21,16,40,26.30
2009,07,21,16,41,26.30
2009,07,21,16,42,26.30
2009,07,21,16,43,26.30
2009,07,21,16,44,26.20
2009,07,21,16,45,26.20
2009,07,21,16,46,26.20
2009,07,21,16,47,26.30
2009,07,21,16,48,26.30
2009,07,21,16,49,26.30
2009,07,21,16,50,26.30
2009,07,21,16,51,26.20
2009,07,21,16,52,26.20
2009,07,21,16,53,26.20
2009,07,21,16,54,26.20
2009,07,21,16,55,26.10
2009,07,21,16,56,26.00
2009,07,21,16,57,25.90
2009,07,21,16,58,25.80
2009,07,21,16,59,25.70
2009,07,21,17,00,25.60
2009,07,21,17,01,25.50
2009,07,21,17,02,25.50
2009,07,21,17,03,25.50
2009,07,21,17,04,25.50
2009,07,21,17,05,25.50
2009,07,21,17,06,25.60
2009,07,21,17,07,25.70
2009,07,21,17,08,25.80
2009,07,21,17,09,25.80
2009,07,21,17,10,25.90
2009,07,21,17,11,26.00
2009,07,21,17,12,26.10
2009,07,21,17,13,26.10
2009,07,21,17,14,26.10
2009,07,21,17,15,26.00
2009,07,21,17,16,26.00
2009,07,21,17,17,25.90
2009,07,21,17,18,25.90
2009,07,21,17,19,25.90